Location: Plainartige
(45.6866°N, 1.7993°E)
Time: 04:21:00
(UTC+00:00)

Vanguard 1 - Pass Details

Date: 30 May 2022
Orbit: 649 x 3833 km, 34.2° (Epoch: 06 July)

Event Time Altitude Azimuth Distance (km) Brightness Sun altitude
Exits shadow 21:42:00 16° 124° (SE) 4,078 12.7 -16.4°
Drops below altitude 10° 21:48:27 10° 98° (E) 5,239 13.4 -17.0°
Sets 21:56:03 0° 81° (E) 6,953 14.2 -17.6°
